User: anonymous   Login
Location: Kalberh�ni
(46.4610°N, 7.2453°E)
Time: 22:29:42
(UTC+00:00)
Language:

Cosmos 2369 Rocket - Orbit

View from above orbital plane
View from above orbital plane
View from above satellite
View from above satellite

Ground track
Ground track

The orbit data is extracted from the following two-line orbital elements,

1 26070U 00006B   21266.47331789 -.00000237  00000-0 -96694-4 0  9992
2 26070  71.0005 280.2636 0015053 147.0502 213.1562 14.15471280118137
Epoch (UTC): 23 September 2021 11:21:34
Eccentricity: 0.0015053
inclination: 71.0005°
perigee height: 830 km
apogee height: 851 km
right ascension of ascending node: 280.2636°
argument of perigee: 147.0502°
revolutions per day: 14.15471280
mean anomaly at epoch: 213.1562°
orbit number at epoch: 11813

The dashed part of the orbit path shows where the satellite is in the earth's shadow,  

DLR